Regional Weather Roundup
Issued by NWS

Home | Current Version | Previous Version | Graphics & Text | Print | Product List | Glossary On
Versions: 1 2 3 4 5 6 7 8 9 10 11 12 13 14 15 16 17 18 19 20 21 22 23 24 25 26 27
000
ASUS45 KBOU 301407
RWRCO

WEATHER ROUNDUP FOR COLORADO
NATIONAL WEATHER SERVICE DENVER/BOULDER CO
800 AM MDT SUN APR 30 2017

NOTE: "FAIR" INDICATES FEW OR NO CLOUDS BELOW 12000 FEET WITH NO
SIGNIFICANT WEATHER AND/OR OBSTRUCTIONS TO VISIBILITY.

COZ001>005-013-030-031-301500-
...NORTHWEST COLORADO...

CITY           SKY/WX    TMP DP  RH WIND       PRES   REMARKS
CRAIG          FAIR      28  22  78 CALM      30.18R
HAYDEN         FAIR      27  18  69 CALM      30.18R
MEEKER         FAIR      27  21  78 SE3       30.19R
MOUNT WERNER   NOT AVBL
STEAMBOAT SPGS FAIR      26  16  68 CALM      30.16S
WALDEN           N/A     18  10  73 W3        30.14S
$$

COZ006>008-011-301500-
...WEST CENTRAL VALLEYS...

CITY           SKY/WX    TMP DP  RH WIND       PRES   REMARKS
GRAND JUNCTION FAIR      39  19  44 CALM      30.18R
MONTROSE       FAIR      34  23  64 SE7       30.19R WCI  28
EAGLE          MOSUNNY   28  21  74 CALM      30.19R
RIFLE          FAIR      30  22  72 CALM      30.19R
DELTA          FAIR      37  22  52 E6        30.17R
NUCLA          FAIR      34  16  47 E8        30.19R WCI  27
$$

COZ017>023-064>068-301500-
...SOUTHWEST COLORADO...

CITY           SKY/WX    TMP DP  RH WIND       PRES   REMARKS
DURANGO        CLOUDY    28  26  92 E8        30.04R FOG     WCI  20
CORTEZ         FAIR      39  16  39 NW16G26   30.11R
PAGOSA SPRINGS FAIR      28  28 100 CALM      30.04R
TELLURIDE      FAIR      26  16  67 W3        30.14R
WOLF CREEK PAS NOT AVBL
$$

COZ009-010-012-014-032>034-037-058>063-301500-
...CENTRAL COLORADO...

CITY           SKY/WX    TMP DP  RH WIND       PRES   REMARKS
ASPEN          FAIR      25  21  85 CALM      30.13R
BUENA VISTA    FAIR      30  13  48 NW26G40   30.01F WCI  16
COPPER MTN     SNOW      14   9  79 MISG      30.05S VSB 1/2
BERTHOUD PASS  PTSUNNY    3  -6  66 N24G41    29.98F WCI -20
COTTONWOOD PAS FAIR      27  14  59 NW7       30.00S HAZE    WCI  19
GUNNISON       FAIR      30  19  63 SW13      30.09R WCI  20
KREMMLING      FAIR      28  21  74 SE3       30.17R
LEADVILLE      FAIR      18   8  65 N20G29    30.04R WCI   2
MONARCH PASS     N/A     10   7  85 W12G21    30.12R WCI  -4
SALIDA         FAIR      28  19  66 W3        30.09S
SUNLIGHT       FAIR      14  10  85 N7        30.17R WCI   4
WILKERSON PASS FAIR      16  10  79 N15G30    29.96R WCI   1
$$

COZ069>075-301500-
...SAN LUIS VALLEY/SANGRE DE CRISTO MOUNTAINS...

CITY           SKY/WX    TMP DP  RH WIND       PRES   REMARKS
ALAMOSA        FAIR      27  21  78 NE3       29.99R
LA VETA PASS   FAIR      21  16  79 SW16G25   30.03R WCI   7
SAGUACHE       FAIR      32  16  51 N23G30    30.00S WCI  19
$$

COZ035-036-038>040-301500-
...NORTHERN COLORADO FRONT RANGE...

CITY           SKY/WX    TMP DP  RH WIND       PRES   REMARKS
DENVER INTL AP PTSUNNY   31  19  61 NW16      29.98F WCI  20
DMNS CITY PARK   N/A     31  18  57 MISG      29.99F
AURORA         PTSUNNY   28  19  69 NW12      29.99F WCI  18
FRONT RANGE AP NOT AVBL
ERIE MUNI ARPT FAIR      30  23  75 CALM      30.00F
BOULDER MUN AP FAIR      32  21  64 CALM      29.99F
CENTENNIAL     PTSUNNY   30  16  56 NW18G24   29.98F WCI  18
BROOMFIELD     PTSUNNY   30  18  59 CALM      30.00S
FORT COLLINS   FAIR      31  21  66 CALM      29.99F
LONGMONT       FAIR      32  24  72 CALM      30.02S
$$

COZ041-046-047-076>085-087-088-301500-
...PIKES PEAK/PALMER DIVIDE AND SOUTHERN FOOTHILLS...

CITY           SKY/WX    TMP DP  RH WIND       PRES   REMARKS
COLO. SPRINGS  CLOUDY    33  12  41 NW21G33   29.92S WCI  21
A. F. ACADEMY  FAIR      29  11  47 NW22G31   29.91S WCI  16
SCHRIEVER AFB  FAIR      29  15  55 NW15G28   29.93S WCI  18
ELLICOTT       FAIR     N/A N/A N/A N23       29.90S
FALCON         FAIR      28  12  49 N22G32    29.91F WCI  15
FORT CARSON    FAIR      33  14  45 N21G28    29.93R WCI  22
LIMON          FAIR      30  22  72 N29G39    29.89R WCI  15
MONUMENT HILL  FAIR      23  14  68 N16G24    29.95S WCI  10
TRINIDAD       FAIR      29  18  63 NW9       29.95R WCI  20
$$

COZ042>045-048>051-090-091-301500-
...NORTHEAST COLORADO...

CITY           SKY/WX    TMP DP  RH WIND       PRES   REMARKS
GREELEY ARPT   FAIR      35  23  61 N10       30.01F WCI  27
AKRON          FAIR      34  21  59 N26G33    29.91S WCI  21
BURLINGTON     NOT AVBL
WRAY           NOT AVBL
STERLING       FAIR      37  25  60 N22G31    29.93S
HOLYOKE        FAIR      37  28  70 N28       29.87F
FORT MORGAN    FAIR      37  20  50 NW17      29.97R
$$

COZ086-089-092>099-301500-
...SOUTHEAST COLORADO...

CITY           SKY/WX    TMP DP  RH WIND       PRES   REMARKS
PUEBLO         FAIR      37  21  52 N15       29.96R
LA JUNTA       CLOUDY    37  26  64 NW18      29.93R
LAMAR          LGT SNOW  36  26  67 N30G53    29.85S SQUALL
SPRINGFIELD      N/A     29  29 100 NW41G55   29.80R WCI  11
$$




USA.gov is the U.S. government's official web portal to all federal, state and local government web resources and services.